Wind_Speed
32 29 30 32 32 28 30 30 32 33 32 32 31 30 29 27 25 25 25 26 25 26 27 28 29 28 25 27 17 23 20 17 13 14 13 13 13 10 7 7 17 25 15 20 22 24 20
30 30 32 31 31 32 30 31 35 34 32 33 33 32 32 30 27 27 26 26 26 25 26 27 29 30 29 29 17 21 20 18 15 15 14 15 14 9 8 16 22 14 20 19 23 22 24
38 33 35 33 32 33 33 31 33 34 35 37 35 32 32 31 31 29 28 27 27 26 25 27 28 30 31 22 18 23 22 15 16 15 15 15 12 14 12 19 14 19 19 21 25 22 25
34 36 37 37 39 36 32 36 35 35 35 35 34 34 33 31 30 30 29 28 28 27 25 27 28 31 31 23 23 24 23 21 17 18 17 14 9 14 19 20 15 19 18 24 25 26 19
34 35 35 36 36 37 39 40 39 40 39 38 36 36 34 32 31 30 29 26 27 28 27 28 29 30 29 23 18 20 23 22 16 19 17 14 14 20 20 17 18 17 26 22 24 15 12
31 33 33 33 34 35 35 37 38 39 40 41 42 40 37 35 34 31 29 25 25 28 28 31 31 31 19 17 17 11 19 21 19 17 17 18 19 23 20 17 22 17 22 17 15 9 14
34 33 32 32 32 32 32 32 33 34 37 39 41 42 42 39 37 33 28 25 25 29 32 32 29 27 17 20 18 13 13 19 20 18 19 18 23 29 22 20 19 19 25 18 17 17 14
36 35 35 34 34 34 34 33 31 31 30 32 34 38 41 42 40 34 30 25 24 30 39 34 33 37 28 19 26 21 14 20 28 28 23 20 29 25 18 15 22 28 17 17 17 8 6
37 38 37 36 36 36 36 37 36 34 32 30 30 30 34 38 40 33 33 24 22 30 39 43 35 40 28 30 35 26 21 20 27 29 28 28 24 18 17 15 20 24 18 16 18 15 16
37 38 38 38 39 38 38 38 37 37 36 34 31 29 28 30 30 32 29 25 25 29 25 42 31 38 33 35 41 28 27 26 28 31 28 30 25 22 25 27 19 18 17 18 18 15 11
37 39 39 40 40 39 38 38 36 34 33 34 33 31 29 27 24 21 28 23 22 19 7 10 11 9 8 33 28 25 29 32 34 30 29 34 26 28 25 22 18 20 15 13 14 15 16
39 39 39 40 40 38 36 34 32 32 31 29 29 31 31 28 18 11 14 19 16 11 12 6 15 16 17 18 26 18 33 36 35 30 30 28 25 28 27 23 21 20 19 17 11 16 15
40 40 40 38 36 35 35 35 34 31 28 29 27 28 32 30 9 26 25 26 18 17 15 18 16 18 16 20 21 28 20 44 40 34 38 33 35 27 25 23 21 17 22 7 4 4 7
41 41 38 36 35 35 33 33 33 34 32 29 25 26 31 29 16 26 34 31 15 47 43 11 16 13 19 20 22 23 29 31 47 36 23 31 30 35 24 28 21 24 18 12 5 4 5
41 39 36 35 33 32 31 33 32 32 31 28 23 25 31 28 22 28 35 33 42 41 25 40 15 18 22 14 17 18 37 36 38 48 34 28 37 22 32 21 27 19 23 22 21 5 1
38 35 35 36 35 35 34 34 34 31 28 24 24 24 30 23 27 31 40 50 57 49 29 18 28 20 16 17 19 26 20 27 34 39 46 32 25 34 28 28 24 30 25 17 20 5 4
38 36 35 35 35 36 35 35 34 33 29 24 26 28 31 23 29 31 51 55 52 54 34 35 30 29 23 21 16 16 26 27 21 35 39 42 29 19 28 35 33 30 27 25 17 20 5
41 41 38 39 39 39 39 37 37 35 31 30 33 38 30 27 38 45 55 58 51 39 39 37 41 28 27 27 27 25 25 25 13 27 42 44 34 35 33 22 27 40 35 28 23 12 16
42 43 41 42 43 43 41 40 39 36 36 36 40 42 28 32 48 56 55 53 50 40 32 31 49 39 30 32 29 21 19 27 21 26 41 42 45 24 17 32 22 43 32 25 28 29 26
43 45 46 46 44 42 42 36 38 39 39 44 46 43 47 40 46 52 52 54 50 41 49 33 40 43 31 29 33 29 30 25 24 17 34 43 40 45 27 17 25 25 32 29 29 27 22
46 48 48 48 47 45 42 38 39 43 45 49 54 51 48 55 64 53 49 38 43 47 42 38 40 46 38 30 26 33 30 34 22 17 23 34 48 42 38 30 23 33 26 32 35 34 29
47 48 50 50 49 45 42 38 37 41 44 52 61 61 53 55 52 51 48 54 54 32 37 34 35 41 36 35 31 30 22 26 22 23 24 24 28 41 47 33 34 24 30 33 29 31 31
47 45 44 44 45 45 43 42 49 48 52 58 60 63 45 53 36 45 60 56 51 37 23 24 32 37 44 40 23 26 30 30 24 27 21 14 34 28 35 38 31 35 36 34 33 24 30
39 39 39 40 40 40 41 44 49 52 55 53 63 65 56 45 51 60 54 50 50 40 33 17 25 31 48 25 21 23 26 25 32 30 29 32 23 32 25 27 14 24 33 24 26 30 28
36 38 38 39 38 38 40 42 45 48 53 61 57 67 68 55 49 47 53 41 33 43 41 30 29 27 38 34 35 28 22 29 36 36 28 20 32 18 23 29 20 42 25 23 25 29 26
35 37 38 37 38 40 41 41 43 48 53 63 65 50 61 64 49 53 44 48 36 31 38 38 33 26 19 32 30 32 13 13 7 15 26 21 30 33 9 6 15 19 30 27 21 29 21
32 34 37 38 39 41 43 45 46 46 49 57 70 62 51 56 59 37 36 33 34 34 32 33 35 30 30 32 40 33 30 20 7 4 11 9 4 11 8 5 15 4 22 27 21 21 23
26 30 32 37 40 41 41 42 45 48 50 56 63 70 47 40 50 53 35 35 29 30 34 34 33 33 38 34 35 32 29 29 26 13 17 17 11 10 14 8 9 12 17 24 40 23 25
26 26 28 33 34 43 45 43 45 47 49 51 56 62 52 19 43 49 58 35 32 35 33 32 30 32 35 34 37 27 32 22 32 32 28 21 20 15 11 19 17 19 11 16 22 26 19
Wind_Direction
272 265 265 271 269 269 269 269 270 269 269 271 271 271 271 271 272 274 273 275 274 273 274 274 274 273 269 267 271 264 267 269 261 261 254 251 240 221 211 277 295 292 297 281 287 281 294
272 274 276 266 268 270 271 272 274 272 271 270 270 271 272 272 271 271 271 272 273 271 273 273 274 274 271 268 273 266 259 252 256 256 245 242 245 216 251 280 280 285 297 288 283 289 291
272 270 267 265 265 276 265 261 268 271 274 270 271 272 270 270 271 269 270 271 274 273 274 276 273 273 268 276 266 265 267 261 247 252 240 237 237 207 236 261 251 270 289 279 274 277 282
274 274 269 263 261 255 257 273 266 264 263 263 262 259 264 268 269 269 269 270 273 275 275 275 277 276 271 274 263 254 261 260 249 248 235 221 202 250 234 242 247 273 272 279 273 279 290
273 272 269 268 265 263 261 258 258 261 261 261 260 262 260 260 261 266 268 269 272 273 274 273 275 278 280 276 276 253 241 245 239 239 233 210 207 235 240 244 268 265 274 284 294 256 301
273 272 272 270 269 267 264 263 261 260 259 259 259 257 257 259 258 258 262 269 270 271 270 269 268 276 274 264 262 245 235 235 229 232 233 226 223 238 237 217 247 262 270 306 290 280 271
275 274 272 271 271 271 270 268 266 263 261 259 259 258 257 255 256 256 259 264 269 269 262 260 257 256 256 260 253 244 228 223 214 215 239 233 230 232 230 229 249 271 287 300 299 287 267
275 273 272 271 271 270 271 269 268 268 267 265 262 260 258 256 254 255 253 253 265 270 272 265 259 262 254 240 246 236 218 215 203 213 221 229 239 238 239 232 253 273 280 282 285 198 269
272 272 273 272 271 270 270 270 269 267 267 266 269 267 264 260 257 253 251 248 244 258 268 267 262 264 254 242 241 237 205 222 222 212 214 224 241 242 225 238 265 268 274 272 285 287 298
273 273 273 274 275 274 272 270 268 267 266 264 263 266 268 266 261 249 245 240 242 254 281 281 284 263 245 240 242 225 221 217 222 220 216 231 247 236 246 250 253 268 263 287 297 286 258
269 271 272 273 272 271 272 271 270 267 264 261 258 258 262 266 262 250 244 231 233 251 302 278 256 255 210 222 234 227 212 202 226 217 213 224 232 241 249 248 236 258 265 279 272 293 299
270 268 269 268 266 267 268 269 269 268 264 260 257 251 252 258 267 222 200 190 201 195 244 234 225 230 223 228 215 199 203 208 217 230 223 233 242 229 238 248 243 249 268 285 271 268 276
271 271 272 265 257 259 263 264 264 265 266 263 254 248 246 246 239 198 178 172 182 213 231 241 225 218 229 233 233 204 189 201 202 212 225 226 235 235 244 238 243 237 248 280 308 285 246
273 272 267 258 255 256 257 258 261 261 261 262 256 246 240 239 215 202 182 177 210 230 214 168 172 218 227 227 235 230 203 218 212 210 219 223 241 231 227 228 232 237 230 215 205 202 265
273 269 262 255 254 254 259 257 257 258 257 256 252 242 236 229 204 202 192 204 221 223 229 224 226 291 232 232 222 227 217 221 223 210 216 215 235 236 229 230 217 231 217 224 249 178 274
268 264 259 256 252 255 261 258 252 250 248 238 240 242 238 222 198 196 200 218 231 231 220 217 253 256 274 218 220 226 226 234 224 222 216 223 235 231 231 232 229 233 234 226 230 151 217
263 261 257 253 254 259 262 259 251 242 237 227 230 231 241 217 198 196 210 230 236 235 226 235 239 255 257 283 298 273 235 237 221 223 222 223 235 238 225 229 223 217 228 237 249 229 202
258 258 258 257 261 265 266 257 248 237 227 216 219 222 235 210 194 210 224 229 238 234 238 230 238 241 260 263 288 297 288 232 234 234 217 220 228 240 233 236 244 224 225 230 234 236 244
257 259 261 262 263 265 265 256 245 230 222 219 216 221 218 210 208 217 232 235 237 236 232 229 232 240 245 264 289 284 293 252 258 246 222 218 218 233 240 243 232 214 214 225 239 242 249
260 261 261 261 263 264 268 253 237 224 218 219 212 213 214 215 229 233 232 235 235 240 239 237 232 235 245 264 265 280 280 255 260 248 233 219 217 223 229 236 224 224 222 237 233 239 251
262 263 262 262 263 263 260 245 230 221 214 214 210 213 209 211 223 223 229 234 244 240 241 238 239 225 225 258 261 267 275 261 243 241 245 222 217 222 223 241 238 225 236 233 238 232 230
267 267 266 264 261 254 247 233 217 211 213 213 213 212 217 216 218 223 223 234 235 239 234 236 244 224 222 239 243 267 264 261 263 218 227 223 222 221 224 227 229 230 240 238 233 233 249
269 267 265 261 257 249 237 224 213 217 215 214 221 217 219 224 218 218 228 234 235 235 229 244 241 228 220 219 247 271 279 269 269 248 222 252 227 221 224 230 242 255 245 241 247 242 249
269 264 259 255 249 246 240 228 220 219 213 210 223 219 208 221 220 226 233 236 233 223 241 219 234 236 220 225 248 261 251 263 255 260 260 254 243 216 216 214 225 238 243 233 243 253 258
268 263 258 252 245 241 237 231 223 216 212 210 218 218 219 214 228 231 231 235 243 240 227 226 214 232 233 229 245 265 275 268 258 261 256 224 234 209 210 211 230 235 228 235 250 257 256
269 264 262 249 247 240 235 234 232 219 212 211 213 219 218 217 218 230 228 230 232 231 233 228 226 214 218 235 247 242 241 269 251 253 262 271 205 201 178 219 233 256 228 231 242 259 234
268 263 256 251 242 236 231 227 222 224 213 209 213 214 208 213 212 213 218 225 227 234 241 234 224 219 213 225 232 233 234 235 238 230 239 271 261 207 207 280 243 246 242 222 240 250 251
278 270 259 248 241 235 229 223 219 215 212 208 212 214 215 213 225 209 212 208 212 221 222 227 221 217 212 230 230 233 233 227 236 237 218 221 205 210 240 258 248 215 217 221 229 230 259
282 273 266 256 242 230 223 221 217 212 205 208 210 212 209 197 211 213 219 217 231 213 220 215 221 209 212 221 224 227 227 235 225 230 239 223 232 236 247 254 270 229 241 190 215 225 270
Height
3100 3100 3100 3102 3103 3102 3104 3105 3106 3108 3109 3110 3111 3111 3111 3112 3112 3113 3113 3114 3113 3113 3114 3113 3112 3112 3114 3113 3117 3115 3117 3117 3117 3118 3119 3119 3119 3120 3119 3119 3119 3119 3119 3119 3116 3116 3115
3093 3093 3093 3094 3095 3095 3095 3097 3099 3101 3102 3103 3104 3104 3105 3106 3106 3107 3107 3108 3108 3108 3108 3107 3105 3106 3106 3107 3111 3110 3112 3113 3113 3113 3115 3116 3116 3117 3118 3117 3117 3117 3116 3114 3111 3111 3112
3083 3083 3084 3085 3087 3086 3086 3087 3090 3092 3094 3096 3096 3097 3098 3099 3100 3100 3101 3102 3102 3103 3102 3101 3098 3098 3100 3105 3106 3103 3105 3109 3108 3109 3110 3112 3114 3115 3115 3114 3113 3113 3113 3111 3108 3108 3108
3074 3072 3074 3075 3077 3078 3079 3079 3081 3083 3085 3087 3088 3088 3090 3092 3093 3094 3094 3096 3097 3097 3097 3095 3094 3089 3091 3098 3098 3099 3101 3103 3104 3105 3106 3108 3110 3112 3111 3111 3110 3110 3110 3107 3104 3105 3105
3064 3065 3066 3066 3067 3067 3068 3070 3071 3073 3076 3078 3079 3081 3081 3084 3085 3087 3088 3090 3091 3091 3090 3089 3089 3084 3088 3089 3090 3093 3094 3097 3100 3101 3102 3105 3106 3107 3108 3109 3108 3107 3105 3103 3100 3101 3102
3056 3056 3056 3057 3058 3058 3059 3060 3062 3063 3065 3068 3070 3071 3073 3075 3077 3079 3082 3085 3085 3084 3083 3082 3082 3083 3084 3084 3084 3087 3088 3092 3094 3097 3099 3101 3102 3102 3104 3105 3102 3101 3102 3100 3099 3100 3097
3048 3048 3048 3049 3049 3051 3051 3051 3052 3054 3056 3057 3059 3061 3064 3066 3069 3073 3077 3079 3082 3078 3073 3076 3075 3073 3078 3080 3079 3080 3084 3087 3090 3092 3093 3096 3098 3094 3098 3101 3100 3100 3100 3098 3097 3098 3097
3038 3039 3039 3039 3040 3042 3043 3044 3045 3046 3047 3048 3050 3052 3054 3056 3060 3067 3069 3073 3076 3068 3062 3065 3067 3063 3072 3076 3073 3075 3080 3082 3084 3084 3090 3094 3088 3092 3097 3098 3099 3100 3097 3096 3096 3094 3097
3030 3029 3030 3030 3031 3033 3033 3034 3035 3037 3039 3041 3042 3043 3044 3047 3051 3061 3062 3069 3069 3064 3056 3051 3058 3055 3065 3067 3064 3071 3073 3076 3079 3081 3083 3084 3084 3090 3092 3094 3095 3097 3094 3093 3094 3093 3092
3019 3020 3021 3021 3021 3022 3023 3024 3026 3027 3030 3032 3035 3037 3038 3039 3047 3049 3056 3062 3064 3060 3056 3040 3045 3039 3049 3054 3049 3064 3066 3072 3073 3075 3079 3081 3082 3086 3088 3089 3093 3093 3093 3091 3090 3091 3089
3010 3011 3011 3012 3012 3013 3014 3015 3016 3018 3021 3023 3026 3029 3031 3032 3037 3044 3048 3056 3058 3065 3062 3042 3038 3037 3040 3041 3046 3053 3059 3062 3065 3069 3074 3072 3077 3080 3082 3085 3089 3090 3091 3089 3089 3087 3086
3001 3002 3003 3003 3003 3004 3006 3007 3008 3009 3012 3015 3018 3021 3023 3027 3034 3043 3045 3049 3057 3064 3046 3033 3033 3032 3037 3038 3044 3050 3051 3056 3064 3067 3067 3071 3074 3076 3078 3082 3084 3087 3088 3086 3085 3086 3084
2990 2990 2991 2992 2995 2996 2998 2999 3001 3002 3004 3006 3010 3013 3016 3020 3034 3033 3040 3044 3052 3046 3031 3026 3027 3029 3035 3035 3039 3044 3046 3048 3051 3060 3059 3066 3066 3070 3075 3077 3080 3082 3085 3084 3085 3084 3082
2977 2979 2980 2982 2984 2987 2989 2991 2993 2995 2997 3000 3002 3005 3008 3013 3027 3029 3034 3039 3036 3009 3020 3024 3026 3029 3030 3031 3035 3037 3041 3043 3047 3052 3056 3059 3062 3063 3067 3070 3074 3075 3080 3081 3082 3084 3080
2965 2966 2968 2971 2974 2977 2980 2982 2985 2987 2990 2993 2997 2998 3000 3009 3021 3023 3031 3028 3004 3007 3018 3023 3022 3025 3027 3030 3034 3035 3034 3037 3041 3045 3051 3051 3055 3060 3062 3065 3070 3072 3072 3076 3076 3076 3079
2953 2954 2957 2960 2963 2966 2969 2972 2975 2979 2982 2987 2989 2992 2993 3004 3011 3016 3021 3009 2993 3003 3013 3021 3023 3024 3024 3027 3030 3032 3032 3031 3037 3041 3047 3048 3052 3054 3058 3062 3062 3066 3072 3073 3072 3075 3079
2940 2942 2945 2948 2952 2955 2958 2961 2964 2970 2975 2981 2983 2984 2986 2998 3003 3007 2999 2987 2991 2998 3010 3016 3015 3017 3018 3021 3026 3026 3029 3029 3031 3035 3040 3045 3049 3051 3053 3052 3055 3060 3063 3065 3068 3068 3069
2927 2929 2932 2935 2938 2941 2945 2948 2953 2959 2967 2970 2974 2974 2979 2990 2995 2991 2978 2975 2989 2994 3003 3009 3009 3011 3014 3015 3020 3024 3024 3021 3027 3030 3030 3036 3043 3044 3041 3045 3046 3052 3055 3058 3060 3062 3062
2913 2915 2918 2921 2924 2927 2931 2935 2940 2948 2955 2961 2963 2968 2976 2980 2975 2968 2970 2973 2983 2987 2995 2999 3004 3007 3011 3012 3019 3017 3018 3019 3021 3024 3023 3031 3034 3038 3038 3042 3040 3041 3049 3053 3055 3056 3055
2898 2901 2904 2906 2909 2912 2915 2920 2927 2935 2944 2951 2955 2959 2964 2965 2964 2962 2964 2969 2975 2981 2986 2992 2997 3004 3006 3006 3010 3012 3011 3012 3012 3014 3019 3023 3026 3024 3026 3035 3038 3040 3043 3047 3049 3049 3051
2883 2885 2887 2890 2893 2896 2901 2905 2913 2921 2930 2937 2938 2937 2940 2943 2939 2955 2965 2966 2970 2972 2978 2987 2989 2992 2997 3004 3007 3008 3010 3006 3008 3011 3013 3018 3015 3020 3026 3031 3034 3038 3038 3040 3040 3042 3043
2866 2867 2869 2872 2875 2881 2886 2892 2898 2907 2918 2922 2922 2925 2931 2939 2947 2954 2959 2953 2958 2968 2975 2979 2982 2989 2997 2997 3001 3005 3004 3004 3006 3008 3006 3009 3011 3015 3019 3025 3028 3031 3032 3032 3033 3036 3036
2848 2849 2851 2854 2858 2864 2870 2878 2886 2895 2902 2904 2910 2919 2927 2929 2939 2948 2936 2936 2948 2969 2972 2975 2980 2983 2986 2989 3001 3002 3000 3002 3001 3003 3004 3007 3009 3011 3009 3020 3024 3020 3019 3026 3027 3030 3032
2831 2833 2835 2839 2842 2848 2855 2862 2870 2880 2886 2895 2898 2909 2917 2918 2927 2924 2935 2942 2951 2960 2965 2972 2976 2979 2975 2995 2997 2995 2998 2998 3000 2999 2997 3000 3004 3005 3008 3015 3015 3008 3014 3020 3023 3024 3026
2817 2818 2821 2824 2828 2834 2840 2847 2856 2865 2874 2882 2886 2897 2903 2911 2917 2928 2934 2939 2948 2955 2959 2963 2967 2973 2986 2992 2993 2994 2993 2991 2988 2992 2991 2993 2998 2998 2999 3003 3003 3001 3008 3013 3017 3018 3020
2802 2803 2805 2809 2815 2820 2826 2833 2841 2851 2862 2871 2878 2888 2896 2904 2908 2921 2929 2935 2941 2945 2953 2957 2965 2971 2980 2984 2985 2985 2985 2986 2985 2983 2983 2985 2986 2992 2995 2997 2993 2995 3004 3010 3012 3005 3013
2789 2789 2791 2794 2798 2804 2811 2819 2828 2839 2850 2860 2867 2880 2888 2891 2904 2916 2921 2927 2936 2942 2945 2953 2960 2966 2971 2972 2977 2979 2981 2985 2982 2981 2987 2983 2982 2989 2991 2994 2990 2993 2999 3005 3005 3005 3010
2777 2776 2776 2778 2782 2789 2797 2806 2816 2827 2839 2848 2858 2870 2883 2885 2896 2908 2916 2922 2929 2936 2940 2946 2956 2957 2961 2963 2967 2968 2970 2975 2978 2980 2980 2980 2982 2987 2992 2994 2991 2994 2996 2996 2995 3003 3005
2765 2761 2760 2760 2762 2769 2782 2793 2804 2817 2831 2842 2852 2863 2883 2885 2891 2901 2910 2918 2923 2929 2935 2940 2944 2948 2950 2956 2959 2961 2966 2969 2974 2974 2978 2979 2981 2983 2987 2985 2989 2990 2990 2993 2991 2996 3001